Tiempo cada hora Barreiro do Jaíba

Hoy, 14 Mayo, Viernes

Tiempo Temperatura Precipitaciones Viento Presión Humedad
00:00 +19°C° 0 mm 2 mps 719 mmHg 46%
01:00 +20°C° 0 mm 1 mps 719 mmHg 50%
02:00 +20°C° 0 mm 1 mps 719 mmHg 53%
03:00 +19°C° 0 mm 1 mps 719 mmHg 56%
04:00 +18°C° 0 mm 2 mps 719 mmHg 60%
05:00 +17°C° 0 mm 2 mps 719 mmHg 64%
06:00 +17°C° 0 mm 2 mps 719 mmHg 68%
07:00 +19°C° 0 mm 2 mps 720 mmHg 63%
08:00 +22°C° 0 mm 3 mps 721 mmHg 57%
09:00 +26°C° 0 mm 4 mps 721 mmHg 51%
10:00 +28°C° 0 mm 3 mps 721 mmHg 44%
11:00 +30°C° 0 mm 3 mps 721 mmHg 37%
12:00 +33°C° 0 mm 3 mps 720 mmHg 30%
13:00 +33°C° 0 mm 3 mps 719 mmHg 29%
14:00 +34°C° 0 mm 2 mps 719 mmHg 27%
15:00 +34°C° 0 mm 2 mps 718 mmHg 25%
16:00 +31°C° 0 mm 2 mps 718 mmHg 29%
17:00 +30°C° 0 mm 3 mps 718 mmHg 33%
18:00 +28°C° 0 mm 3 mps 718 mmHg 36%
19:00 +27°C° 0 mm 3 mps 718 mmHg 41%
20:00 +25°C° 0 mm 4 mps 719 mmHg 46%
21:00 +23°C° 0 mm 4 mps 719 mmHg 51%
22:00 +22°C° 0 mm 4 mps 719 mmHg 55%
23:00 +22°C° 0 mm 3 mps 720 mmHg 59%

Mañana, 15 Mayo, Sábado

Tiempo Temperatura Precipitaciones Viento Presión Humedad
00:00 +21°C° 0 mm 2 mps 720 mmHg 63%
01:00 +20°C° 0 mm 2 mps 719 mmHg 68%
02:00 +19°C° 0 mm 2 mps 719 mmHg 74%
03:00 +19°C° 0 mm 2 mps 719 mmHg 79%
04:00 +18°C° 0 mm 2 mps 719 mmHg 82%
05:00 +18°C° 0 mm 2 mps 719 mmHg 85%
06:00 +17°C° 0 mm 2 mps 719 mmHg 88%
07:00 +19°C° 0 mm 2 mps 720 mmHg 77%
08:00 +23°C° 0 mm 2 mps 720 mmHg 66%
09:00 +25°C° 0 mm 3 mps 721 mmHg 55%
10:00 +27°C° 0 mm 3 mps 721 mmHg 47%
11:00 +30°C° 0 mm 2 mps 720 mmHg 39%
12:00 +32°C° 0 mm 2 mps 720 mmHg 31%
13:00 +32°C° 0 mm 2 mps 719 mmHg 29%
14:00 +34°C° 0 mm 2 mps 719 mmHg 28%
15:00 +34°C° 0 mm 2 mps 718 mmHg 26%
16:00 +31°C° 0 mm 2 mps 718 mmHg 30%
17:00 +29°C° 0 mm 2 mps 718 mmHg 35%
18:00 +27°C° 0 mm 2 mps 718 mmHg 39%
19:00 +26°C° 0 mm 2 mps 719 mmHg 44%
20:00 +25°C° 0 mm 2 mps 719 mmHg 48%
21:00 +23°C° 0 mm 2 mps 719 mmHg 53%
22:00 +23°C° 0 mm 2 mps 719 mmHg 55%
23:00 +21°C° 0 mm 2 mps 719 mmHg 58%

Pasado mañana, 16 Mayo, Domingo

Tiempo Temperatura Precipitaciones Viento Presión Humedad
00:00 +22°C° 0 mm 1 mps 719 mmHg 60%
01:00 +21°C° 0 mm 1 mps 719 mmHg 64%
02:00 +20°C° 0 mm 1 mps 719 mmHg 68%
03:00 +20°C° 0 mm 1 mps 719 mmHg 73%
04:00 +19°C° 0 mm 1 mps 719 mmHg 75%
05:00 +19°C° 0 mm 1 mps 719 mmHg 78%
06:00 +18°C° 0 mm 1 mps 719 mmHg 81%
07:00 +20°C° 0 mm 2 mps 720 mmHg 71%
08:00 +24°C° 0 mm 2 mps 721 mmHg 61%
09:00 +26°C° 0 mm 2 mps 721 mmHg 50%
10:00 +28°C° 0 mm 2 mps 721 mmHg 43%
11:00 +31°C° 0 mm 2 mps 720 mmHg 36%
12:00 +33°C° 0 mm 1 mps 720 mmHg 29%
13:00 +33°C° 0 mm 1 mps 719 mmHg 28%
14:00 +34°C° 0 mm 1 mps 719 mmHg 26%
15:00 +34°C° 0 mm 1 mps 718 mmHg 24%
16:00 +32°C° 0 mm 1 mps 718 mmHg 28%
17:00 +30°C° 0 mm 1 mps 718 mmHg 31%
18:00 +28°C° 0 mm 1 mps 718 mmHg 34%
19:00 +28°C° 0 mm 2 mps 718 mmHg 37%
20:00 +27°C° 0 mm 2 mps 719 mmHg 39%
21:00 +27°C° 0 mm 2 mps 719 mmHg 42%
22:00 +25°C° 0 mm 2 mps 719 mmHg 45%
23:00 +24°C° 0 mm 2 mps 719 mmHg 49%

17 Mayo, Lunes

Tiempo Temperatura Precipitaciones Viento Presión Humedad
00:00 +23°C° 0 mm 1 mps 719 mmHg 53%
01:00 +23°C° 0 mm 1 mps 719 mmHg 56%
02:00 +22°C° 0 mm 1 mps 719 mmHg 59%
03:00 +22°C° 0 mm 1 mps 719 mmHg 62%
04:00 +21°C° 0 mm 1 mps 719 mmHg 65%
05:00 +21°C° 0 mm 1 mps 719 mmHg 67%
06:00 +20°C° 0 mm 1 mps 719 mmHg 70%
07:00 +22°C° 0 mm 1 mps 720 mmHg 63%
08:00 +24°C° 0 mm 2 mps 721 mmHg 57%
09:00 +26°C° 0 mm 2 mps 721 mmHg 50%
10:00 +29°C° 0 mm 1 mps 721 mmHg 42%
11:00 +32°C° 0 mm 1 mps 720 mmHg 35%
12:00 +35°C° 0 mm 1 mps 720 mmHg 27%
13:00 +34°C° 0 mm 1 mps 719 mmHg 26%
14:00 +34°C° 0 mm 1 mps 718 mmHg 25%
15:00 +34°C° 0 mm 1 mps 717 mmHg 24%
16:00 +32°C° 0 mm 1 mps 718 mmHg 27%
17:00 +31°C° 0 mm 1 mps 718 mmHg 30%
18:00 +29°C° 0 mm 1 mps 718 mmHg 33%
19:00 +28°C° 0 mm 1 mps 718 mmHg 36%
20:00 +27°C° 0 mm 1 mps 718 mmHg 39%
21:00 +26°C° 0 mm 1 mps 719 mmHg 41%
22:00 +26°C° 0 mm 1 mps 719 mmHg 44%
23:00 +25°C° 0 mm 1 mps 719 mmHg 46%

18 Mayo, Martes

Tiempo Temperatura Precipitaciones Viento Presión Humedad
00:00 +24°C° 0 mm 1 mps 719 mmHg 48%
01:00 +24°C° 0 mm 1 mps 718 mmHg 50%
02:00 +23°C° 0 mm 1 mps 718 mmHg 51%
03:00 +23°C° 0 mm 1 mps 718 mmHg 53%
04:00 +22°C° 0 mm 1 mps 718 mmHg 55%
05:00 +22°C° 0 mm 1 mps 718 mmHg 58%
06:00 +21°C° 0 mm 1 mps 718 mmHg 60%
07:00 +24°C° 0 mm 1 mps 719 mmHg 53%
08:00 +26°C° 0 mm 1 mps 720 mmHg 46%
09:00 +29°C° 0 mm 1 mps 720 mmHg 39%
10:00 +28°C° 0 mm 0 mps 720 mmHg 36%
11:00 +30°C° 0 mm 0 mps 720 mmHg 33%
12:00 +31°C° 0 mm 0 mps 719 mmHg 29%
13:00 +32°C° 0 mm 0 mps 719 mmHg 28%
14:00 +34°C° 0 mm 1 mps 718 mmHg 27%
15:00 +34°C° 0 mm 1 mps 717 mmHg 25%
16:00 +33°C° 0 mm 1 mps 717 mmHg 28%
17:00 +31°C° 0 mm 1 mps 717 mmHg 31%
18:00 +29°C° 0 mm 1 mps 717 mmHg 33%
19:00 +29°C° 0 mm 1 mps 718 mmHg 35%
20:00 +28°C° 0 mm 1 mps 718 mmHg 37%
21:00 +27°C° 0 mm 1 mps 718 mmHg 39%
22:00 +26°C° 0 mm 1 mps 718 mmHg 42%
23:00 +25°C° 0 mm 1 mps 718 mmHg 46%

19 Mayo, Miércoles

Tiempo Temperatura Precipitaciones Viento Presión Humedad
00:00 +24°C° 0 mm 1 mps 718 mmHg 49%
01:00 +24°C° 0 mm 1 mps 718 mmHg 51%
02:00 +23°C° 0 mm 1 mps 718 mmHg 53%
03:00 +23°C° 0 mm 1 mps 718 mmHg 55%
04:00 +22°C° 0 mm 1 mps 718 mmHg 57%
05:00 +22°C° 0 mm 1 mps 718 mmHg 59%
06:00 +22°C° 0 mm 1 mps 718 mmHg 61%
07:00 +25°C° 0 mm 1 mps 719 mmHg 53%
08:00 +28°C° 0 mm 1 mps 720 mmHg 45%
09:00 +31°C° 0 mm 1 mps 720 mmHg 38%
10:00 +33°C° 0 mm 1 mps 720 mmHg 32%
11:00 +35°C° 0 mm 1 mps 719 mmHg 26%
12:00 +39°C° 0 mm 1 mps 719 mmHg 20%
13:00 +39°C° 0 mm 1 mps 718 mmHg 20%
14:00 +37°C° 0 mm 1 mps 717 mmHg 19%
15:00 +37°C° 0 mm 1 mps 717 mmHg 18%
16:00 +35°C° 0 mm 1 mps 717 mmHg 21%
17:00 +33°C° 0 mm 1 mps 717 mmHg 23%
18:00 +29°C° 0 mm 0 mps 717 mmHg 26%
19:00 +30°C° 0 mm 1 mps 717 mmHg 27%
20:00 +30°C° 0 mm 1 mps 717 mmHg 27%
21:00 +29°C° 0 mm 1 mps 718 mmHg 28%
22:00 +29°C° 0 mm 2 mps 718 mmHg 30%
23:00 +28°C° 0 mm 2 mps 718 mmHg 32%
Mostrar más

Necesitamos Su Consentimiento

Meteoprog y nuestros Proveedores de Servicios pueden almacenar y acceder a sus datos personales como cookies, identificadores de dispositivo u otras tecnologías similares de su dispositivo y procesar dichos datos para personalizar contenido y anuncios, además de ofrecer funciones de redes sociales y analizar el tráfico.

  • Almacenar y/o acceder a información en su dispositivo

    Se puede almacenar o acceder a cookies, identificadores de dispositivo u otra información de su dispositivo para los fines anteriormente indicados.

  • Anuncios y contenido personalizados, medición de anuncios y contenido, percepciones del público, y desarrollo de productos

    Los anuncios y el contenido pueden personalizarse en base a su perfil. Se pueden añadir más datos para personalizar mejor los anuncios y contenidos. Se puede medir el rendimiento de los anuncios y contenidos. Se puede obtener la percepción sobre el público que ha visto los anuncios y contenidos. Dichos datos pueden usarse para desarrollar o mejorar la experiencia del usuario, sistemas y software.

Al hacer clic en ‘Estoy De Acuerdo’ usted permitirá el uso de las cookies, identificadores de dispositivo, balizas web u otras tecnologías similares indicadas. Su configuración puede cambiarse desde el navegador de su dispositivo.

Para ciertos fines, los intereses legítimos pueden ser considerados por encima del consentimiento. Puede leer más sobre ello en nuestra Política de Privacidad y Cookies.